#timestamp,LO_Frequency,Hit 
1498453215.5,286046999.2,N
1498453235.4,286047000.3,N
1498453255.2,286046999.8,N
1498453275.0,286047005.3,N
1498453275.9,286047005.3,N
1498453295.8,286047004.1,N
1498453315.6,286047002.8,N
1498453335.4,286047004.4,N
1498453355.3,286047003.6,N
1498453375.1,286047003.5,N
1498453376.0,286047003.5,N
1498453395.8,286047008.8,N
1498453415.7,286047010.1,N
1498453435.5,286047011.3,N
1498453455.3,286047015.3,N
1498453475.1,286047016.3,N
1498453495.9,286047014.6,N
1498453515.7,286047018.1,Y
1498453535.5,286047012.8,N
1498453555.4,286047014.7,N
1498453575.2,286047014.6,N
1498453595.1,286047018.5,Y
1498453596.0,286047018.5,Y
1498453615.8,286047005.1,N
1498453635.6,286047005.0,N
1498453655.5,286047007.2,N
1498453675.3,286047006.5,N
1498453695.1,286047008.4,N
1498453715.8,286047010.8,N
1498453735.7,286047009.6,N
1498453755.5,286047010.6,N
1498453775.3,286047010.2,N
1498453795.2,286047008.0,N
1498453815.0,286047009.2,N
1498453815.9,286047009.2,N
1498453835.7,286047006.3,N
1498453855.6,286047008.4,N
1498453875.4,286047008.6,N
1498453895.2,286047007.8,N
1498453915.1,286047009.6,N
1498453916.0,286047009.6,N
1498453935.8,286047013.6,N
1498453955.6,286047012.6,N
1498453975.5,286047013.6,N
1498453995.3,286047012.5,N
1498454015.1,286047014.5,N
1498454035.8,286047016.8,N
1498454055.7,286047018.2,Y
1498454075.5,286047010.4,N
1498454095.3,286047012.4,N
1498454115.2,286047012.8,N
1498454135.0,286047015.6,N
1498454135.9,286047015.6,N
1498454155.7,286047013.0,N
1498454175.6,286047014.2,N
1498454195.4,286047016.8,N
1498454215.2,286047016.5,N
1498454235.1,286047014.2,N
1498454236.0,286047014.2,N
1498454255.8,286047016.1,N
1498454275.6,286047018.4,Y
1498454295.5,286047009.9,N
1498454315.3,286047011.3,N
1498454335.1,286047013.9,N
1498454355.9,286047012.8,N
1498454375.7,286047015.4,N
1498454395.5,286047017.1,N
1498454415.4,286047014.4,N
1498454435.2,286047015.5,N
1498454455.0,286047013.9,N
1498454455.9,286047013.9,N
1498454475.8,286047011.2,N
1498454495.6,286047011.7,N
1498454515.4,286047011.8,N
1498454535.3,286047012.2,N
1498454555.1,286047012.3,N
1498454556.0,286047012.3,N
1498454575.8,286047012.2,N
1498454595.7,286047011.8,N
1498454615.5,286047011.9,N
1498454635.3,286047011.4,N
1498454655.1,286047012.8,N
1498454675.9,286047011.5,N
1498454695.7,286047011.8,N
1498454715.5,286047014.0,N
1498454735.4,286047014.5,N
1498454755.2,286047016.5,N
1498454775.0,286047016.2,N
1498454775.9,286047016.2,N
1498454795.8,286047018.3,Y
1498454815.6,286047010.7,N
1498454835.4,286047008.7,N
1498454855.3,286047007.9,N
1498454875.1,286047009.0,N
1498454876.0,286047009.0,N
1498454895.8,286047006.2,N
1498454915.7,286047006.1,N
1498454935.5,286047006.3,N
1498454955.3,286047008.7,N
1498454975.2,286047007.9,N
1498454995.9,286047007.9,N
1498455015.7,286047008.7,N
1498455035.6,286047008.7,N
1498455055.4,286047008.5,N
1498455075.2,286047008.2,N
1498455095.0,286047008.0,N
1498455095.9,286047008.0,N
1498455115.8,286047010.4,N
1498455135.6,286047012.0,N
1498455155.4,286047010.3,N
1498455175.3,286047007.9,N
1498455195.1,286047008.4,N
1498455215.8,286047010.3,N
1498455235.7,286047007.9,N
1498455255.5,286047011.7,N
1498455275.3,286047011.6,N
1498455295.2,286047011.3,N
1498455315.9,286047011.1,N
1498455335.7,286047013.5,N
1498455355.6,286047013.5,N
1498455375.4,286047012.7,N
1498455395.2,286047014.5,Y
1498455415.1,286047008.4,N
1498455416.0,286047008.4,N
1498455435.8,286047008.9,N
1498455455.6,286047007.4,N
1498455475.4,286047004.6,N
1498455495.3,286047004.7,N
1498455515.1,286047005.3,N
1498455535.8,286047005.3,N
1498455555.7,286047006.3,N
1498455575.5,286047004.5,N
1498455595.3,286047006.7,N
1498455615.2,286047001.5,N
1498455635.9,286046995.6,N
1498455655.7,286046999.2,N
1498455675.6,286047000.3,N
1498455695.4,286047000.2,N
1498455715.2,286047002.8,N
1498455735.1,286047003.5,N
1498455736.0,286047003.5,N
1498455755.8,286047003.4,N
1498455775.6,286047002.9,N
1498455795.4,286047005.2,N
1498455815.3,286047005.3,N
1498455835.1,286047005.2,N
1498455855.8,286047004.5,N
1498455875.7,286047005.0,N
1498455895.5,286047006.8,N
1498455915.3,286047009.2,N
1498455935.2,286047006.9,N
1498455955.9,286047006.1,N
1498455975.7,286047007.6,N
1498455995.6,286047006.3,N
1498456015.4,286047006.7,N
1498456035.2,286047009.2,N
1498456055.0,286047004.8,N
1498456055.9,286047004.8,N
1498456075.8,286047005.3,N
1498456095.6,286047004.9,N
1498456115.4,286047006.8,N
1498456135.3,286047006.1,N
1498456155.1,286047006.8,N
1498456175.8,286047008.8,N
1498456195.7,286047008.6,N
1498456215.5,286047010.6,N
1498456235.3,286047007.7,N
1498456255.2,286047010.5,N
1498456275.9,286047010.9,N
1498456295.7,286047008.3,N
1498456315.6,286047010.4,N
1498456335.4,286047007.4,N
1498456355.2,286047010.7,N
1498456375.0,286047012.4,N
1498456375.9,286047012.4,N
1498456395.8,286047012.1,N
1498456415.6,286047012.3,N
1498456435.4,286047010.0,N
1498456455.3,286047010.0,N
1498456475.1,286047012.1,N
1498456495.8,286047011.8,N
1498456515.7,286047013.6,N
1498456535.5,286047015.1,Y
1498456555.3,286047009.3,N
1498456575.2,286047016.6,Y
1498456595.0,286047008.4,N
1498456595.9,286047008.4,N
1498456615.7,286047009.0,N
1498456635.6,286047004.5,N
1498456655.4,286047001.0,N
1498456675.2,286046998.2,N
1498456695.1,286047000.4,N
1498456696.0,286047000.4,N
1498456715.8,286047000.3,N
1498456735.6,286047004.0,N
1498456755.5,286047004.4,N
1498456775.3,286047001.5,N
1498456795.1,286046999.8,N
